This is the latest recevied weather packets stored in our database for station/object K5FEP. If no packets are shown the sender has not sent any weather packets the latest 10 day(s).
| Time | Temp. | Humidity | Pressure | Rain* | Wind** | Luminosity | Snow |
|---|---|---|---|---|---|---|---|
| 1777903265 | 17.78° C | 48% | 1015.6 hPa | 0 mm | - | 637 W/m² | - |
| 1777902962 | 17.78° C | 50% | 1015.8 hPa | 0 mm | - | 616 W/m² | - |
| 1777902658 | 17.22° C | 51% | 1015.8 hPa | 0 mm | - | 547 W/m² | - |
| 1777902356 | 16.67° C | 53% | 1015.7 hPa | 0 mm | - | 450 W/m² | - |
| 1777902053 | 16.67° C | 55% | 1015.7 hPa | 0 mm | - | 474 W/m² | - |
| 1777901751 | 16.11° C | 54% | 1015.9 hPa | 0 mm | - | 471 W/m² | - |
| 1777901448 | 15.56° C | 58% | 1015.9 hPa | 0 mm | - | 547 W/m² | - |
| 1777901146 | 16.11° C | 53% | 1015.9 hPa | 0 mm | - | 539 W/m² | - |
| 1777900843 | 16.11° C | 55% | 1016 hPa | 0 mm | - | 504 W/m² | - |
| 1777900540 | 15° C | 59% | 1015.8 hPa | 0 mm | - | 476 W/m² | - |
| 1777900237 | 14.44° C | 61% | 1016 hPa | 0 mm | - | 453 W/m² | - |
| 1777899933 | 14.44° C | 61% | 1016.1 hPa | 0 mm | - | 424 W/m² | - |
| 1777899631 | 13.89° C | 62% | 1016.1 hPa | 0 mm | - | 407 W/m² | - |
| 1777899328 | 13.33° C | 66% | 1015.9 hPa | 0 mm | - | 384 W/m² | - |
| 1777899026 | 12.78° C | 68% | 1016 hPa | 0 mm | - | 364 W/m² | - |
| 1777898722 | 12.22° C | 68% | 1016.1 hPa | 0 mm | - | 342 W/m² | - |
| 1777898420 | 11.11° C | 69% | 1016 hPa | 0 mm | - | 324 W/m² | - |
| 1777898118 | 10.56° C | 73% | 1016 hPa | 0 mm | - | 298 W/m² | - |
| 1777897814 | 10° C | 71% | 1016 hPa | 0 mm | - | 172 W/m² | - |
| 1777897510 | 8.89° C | 75% | 1016.1 hPa | 0 mm | - | 304 W/m² | - |
| 1777897206 | 8.33° C | 79% | 1016.1 hPa | 0 mm | - | 249 W/m² | - |
| 1777896901 | 8.33° C | 80% | 1016.4 hPa | 0 mm | - | 164 W/m² | - |
| 1777896600 | 7.78° C | 79% | 1016.3 hPa | 0 mm | - | 121 W/m² | - |
| 1777896296 | 7.22° C | 80% | 1016.6 hPa | 0 mm | - | 147 W/m² | - |
| 1777895995 | 7.22° C | 84% | 1016.4 hPa | 0 mm | - | 105 W/m² | - |
* Rain latest hour (hover to see other rain measurements)
** Current wind speed in m/s (hover to see current wind gust speed)